Regional Weather Roundup
Issued by NWS

Home | Current Version | Previous Version | Text Only | Print | Product List | Glossary Off
Versions: 1 2 3 4 5 6 7 8 9 10 11 12 13 14 15 16 17 18 19 20 21 22 23 24 25 26 27 28 29 30 31 32 33 34 35 36 37 38 39 40 41 42 43 44 45 46 47 48 49 50

552
ASUS43 KLOT 231908
RWRIL

ILLINOIS REGIONAL WEATHER ROUNDUP
NATIONAL WEATHER SERVICE CHICAGO/ROMEOVILLE IL
200 PM CDT WED AUG 23 2017

NOTE: "FAIR" INDICATES FEW OR NO CLOUDS BELOW 12,000 FEET WITH NO
SIGNIFICANT WEATHER AND/OR OBSTRUCTIONS TO VISIBILITY.

* THESE STATIONS ARE NOT UNDER NWS QUALITY CONTROL. THEY ALSO MAY NOT
  REPORT WEATHER SUCH AS PRECIPITATION OR FOG.

ILZ001-002-007-009-015-016-024-232000-
NORTHWEST ILLINOIS

CITY           SKY/WX    TMP DP  RH WIND       PRES   REMARKS
MOLINE         MOSUNNY   79  49  34 W9G20     30.08F
STERLING*      PTSUNNY   75  52  44 NW12      30.07F
SAVANNA*       SUNNY     77  48  35 NW13      30.07F
$$

ILZ003-004-008-010-011-017-018-232000-
NORTH CENTRAL ILLINOIS

CITY           SKY/WX    TMP DP  RH WIND       PRES   REMARKS
ROCKFORD       MOSUNNY   76  51  41 NW14      30.06F
FREEPORT*      PTSUNNY   71  51  49 NW9       30.07F
ROCHELLE*      MOSUNNY   73  52  46 NW15      30.06F
DE KALB*       MOSUNNY   73  56  53 NW10      30.06F
PERU*          MOSUNNY   74  51  43 NW9G16    30.07S
$$

ILZ005-006-012>014-019>023-232000-
NORTHEAST ILLINOIS

CITY           SKY/WX    TMP DP  RH WIND       PRES   REMARKS
CHICAGO-OHARE  MOSUNNY   77  49  37 NW10      30.03S
CHICAGO-MIDWAY MOSUNNY   78  50  37 W13G23    30.02F
AURORA         MOSUNNY   74  54  49 NW12G17   30.05F
LANSING*       PTSUNNY   74  59  59 NE7       30.03S
JOLIET*        MOSUNNY   77  54  45 NW8       30.04F
WAUKEGAN       PTSUNNY   74  52  46 NW12G18   30.03F
DUPAGE AIRPORT MOSUNNY   76  53  44 NW15G21   30.03F
KANKAKEE*      MOSUNNY   75  51  43 NW12G18   30.05F
WHEELING       MOSUNNY   73  52  47 NW13G20   30.04F
MORRIS*        PTSUNNY   75  55  50 NW8       30.04S VSB 1/2
ROMEOVILLE*    MOSUNNY   74  54  49 NW13G18   30.04F
NORTHERLY ISL    N/A     70  56  61 NE9         N/A
$$

LMZ740>746-232000-
SOUTHERN LAKE MICHIGAN

STATION/POSITION SKY/WX   TEMP    WIND        PRES    VSBY  WAVE
                          AIR SEA DIR/SP/G                  HT/PER
                          (F)     (DEG/KT/KT) (MB)    (MI)  (FT/S)
SOUTHERN BUOY              66 71  350/ 12/ 14 1017.1F         3/ 5
WILMETTE HARBOR            69 73   20/  6/ 10   N/A           3/ 5
HARRISON CRIB              69      30/ 12/ 13   N/A
CALUMET HARBOR             70      30/  7/ 11 1016.5F
BURNS HARBOR               69      20/ 11/ 14 1017.6F
MICHIGAN CITY              68     350/ 16/ 20   N/A
MICHIGAN CITY 6N           68 74   10/ 12/ 17   N/A           4/ 6
ST. JOSEPH                 68 74  360/ 12/ 16 1017.3          4/ 5
$$

ILZ025>027-034>036-040-047-049-050-058-095>099-232000-
WEST-CENTRAL ILLINOIS

CITY           SKY/WX    TMP DP  RH WIND       PRES   REMARKS
QUINCY         SUNNY     76  49  38 NW8       30.11F
GALESBURG*     SUNNY     75  51  42 NW13      30.10F
MACOMB*        MOSUNNY   74  52  44 NW8       30.13S
JACKSONVILLE*  SUNNY     74  53  46 N7        30.10F
PITTSFIELD*    SUNNY     75  54  47 NE5       30.11F
$$

ILZ028>032-037-038-041>044-048-051>054-059>061-232000-
CENTRAL ILLINOIS

CITY           SKY/WX    TMP DP  RH WIND       PRES   REMARKS
PONTIAC        SUNNY     75  55  48 W13       30.07F
BLOOMINGTON    MOSUNNY   76  50  40 NW13      30.09F
DECATUR        PTSUNNY   77  51  40 VRB5      30.08F
PEORIA         MOSUNNY   77  49  37 W13G20    30.08F
LACON*         SUNNY     76  48  37 NW10      30.07S
LINCOLN*       MOSUNNY   77  53  43 NW6       30.08F
SPRINGFIELD    MOSUNNY   78  56  46 NE5       30.09F
TAYLORVILLE    SUNNY     74  54  48 N7        30.09F
$$

ILZ033-039-045-046-055>057-062-063-232000-
EAST-CENTRAL ILLINOIS

CITY           SKY/WX    TMP DP  RH WIND       PRES   REMARKS
CHAMPAIGN      MOSUNNY   76  50  40 NW8G17    30.07F
RANTOUL*       MOSUNNY   77  50  38 N13       30.07F
MATTOON        SUNNY     76  53  44 N12G17    30.06F
PARIS*         MOSUNNY   78  52  41 N15G21    30.07S
$$

ILZ079-100>102-232000-
SOUTHWEST ILLINOIS

CITY           SKY/WX    TMP DP  RH WIND       PRES   REMARKS
ALTON          SUNNY     75  55  50 NW7       30.09F
BELLEVILLE     SUNNY     78  55  45 N6        30.09F
CAHOKIA*       SUNNY     80  51  36 VRB7      30.08F HX  80
SPARTA*        SUNNY     77  55  46 NW5       30.09F
$$

ILZ064>066-069>071-074>076-080>082-084>086-088>090-092>094-232000-
SOUTH-CENTRAL ILLINOIS

CITY           SKY/WX    TMP DP  RH WIND       PRES   REMARKS
CARBONDALE     MOSUNNY   78  56  46 NW8       30.07F
CAIRO*         MOSUNNY   77  58  51 NW10      30.05F
EFFINGHAM*     SUNNY     77  56  47 NW10G16   30.09S
MARION         MOSUNNY   79  55  44 NW9       30.08S
MT. VERNON       N/A     77  54  44 VRB3      30.07F
CENTRALIA*     SUNNY     78  57  48 NW9       30.07F
SALEM*         MOSUNNY   79  53  41 NW7       30.08F
METROPOLIS*    MOSUNNY   79  59  50 E5        30.06F HX  80
$$

ILZ067-068-072-073-078-083-087-091-232000-
SOUTHEAST ILLINOIS

CITY           SKY/WX    TMP DP  RH WIND       PRES   REMARKS
LAWRENCEVILLE  MOSUNNY   79  54  41 N12       30.06F
FLORA*         PTSUNNY   76  55  47 NE6       30.07F
FAIRFIELD*     MOSUNNY   77  54  44 N5        30.06S
HARRISBURG*    SUNNY     78  57  48 NE6       30.06F
ROBINSON*      PTSUNNY   74  55  50 NW3       30.07F
CARMI*         SUNNY     76  60  58 N6        30.05F
$$

ABBREVIATIONS USED IN REMARKS
   TC - TEMPERATURE IN CELSIUS
  WCI - WIND CHILL INDEX
   HX - HEAT INDEX
  VSB - VISIBILITY
$$





USA.gov is the U.S. government's official web portal to all federal, state and local government web resources and services.